User: anonymous
Location: Observatorio Las Palmas
(29.0667°N, 110.9333°W)
Time: 12:25:33
(UTC-07:00)
Language:

NOAA 19 - Orbit

View from above orbital plane
View from above orbital plane
View from above satellite
View from above satellite

Ground track
Ground track

The orbit data is extracted from the following two-line orbital elements,

1 33591U 09005A   14106.47790821  .00000339  00000-0  21055-3 0  1998
2 33591 098.9402 051.7164 0012974 295.7028 172.1093 14.11690591267280
Epoch (UTC): 16 April 2014 11:28:11
Eccentricity: 0.0012974
inclination: 98.9402°
perigee height: 844 km
apogee height: 863 km
right ascension of ascending node: 51.7164°
argument of perigee: 295.7028°
revolutions per day: 14.11690591
mean anomaly at epoch: 172.1093°
orbit number at epoch: 26728

The dashed part of the orbit path shows where the satellite is in the earth's shadow,  

DLR